Owensboro, KY

11:41 PM CDT on October 19, 2019 (GMT -0500)
Owensboro-Daviess County

Weather History for KOWB - September, 2019

Change the Weather History Date:

Sunday, September 22, 2019

  Actual Average Record
Temperature  
Mean Temperature 78 °F -  
Max Temperature 91 °F 79 °F 95 °F (2010)
Min Temperature 64 °F 55 °F 34 °F (1983)
Cooling Degree Days 12    
Growing Degree Days 28 (Base 50)    
Moisture  
Dew Point 60 °F    
Average Humidity 56    
Maximum Humidity 80    
Minimum Humidity 35    
Precipitation  
Precipitation 0.00 in - - ()
Sea Level Pressure  
Sea Level Pressure 30.06 in    
Wind  
Wind Speed 8 mph (SSW)    
Max Wind Speed 22 mph    
Max Gust Speed 29 mph    
Visibility 10 miles    
Events      
Averages and records for this station are not official NWS values.
T = Trace of Precipitation, MM = Missing Value Source: NWS Daily Summary

Daily Weather History Graph

Daily Weather History Graph

Search for Another Location

Airport or City:

Astronomy

Sep. 22, 2019 Rise Set
Actual Time 6:36 AM CDT 6:45 PM CDT
Civil Twilight 6:10 AM CDT 7:12 PM CDT
Nautical Twilight 5:39 AM CDT 7:42 PM CDT
Astronomical Twilight 5:08 AM CDT 8:13 PM CDT
Moon No Moon Rise 2:34 PM CDT (9/22)
Length of Visible Light 13h 02m
Length of Day
12h 09m
Last Quarter, 44% of the Moon is Illuminated
Sep 22
Last Quarter
Sep 28
New
Oct 5
First Quarter
Oct 13
Full
Oct 21
Last Quarter

Hourly Weather History & Observations

Time (CDT) Temp. Heat Index Dew Point Humidity Pressure Visibility Wind Dir Wind Speed Gust Speed Precip Events Conditions
12:56 AM 68.0 °F - 57.9 °F 70% 30.12 in 10.0 mi SE 3.5 mph - N/A   Clear
1:56 AM 66.9 °F - 57.0 °F 70% 30.11 in 8.0 mi SSE 3.5 mph - N/A   Clear
2:56 AM 66.9 °F - 57.0 °F 70% 30.12 in 10.0 mi SE 4.6 mph - N/A   Clear
3:56 AM 64.9 °F - 57.9 °F 78% 30.12 in 10.0 mi SSE 4.6 mph - N/A   Clear
4:56 AM 64.9 °F - 57.9 °F 78% 30.12 in 10.0 mi SSE 4.6 mph - N/A   Clear
5:56 AM 64.0 °F - 57.9 °F 80% 30.12 in 10.0 mi Calm Calm - N/A   Clear
6:56 AM 64.0 °F - 57.9 °F 80% 30.13 in 10.0 mi SE 4.6 mph - N/A   Clear
7:56 AM 68.0 °F - 60.1 °F 76% 30.13 in 10.0 mi South 6.9 mph - N/A   Clear
8:56 AM 77.0 °F - 61.0 °F 58% 30.13 in 10.0 mi SSW 11.5 mph - N/A   Clear
9:56 AM 82.0 °F 82.7 °F 61.0 °F 49% 30.11 in 10.0 mi SSW 18.4 mph 23.0 mph N/A   Clear
10:56 AM 87.1 °F 87.0 °F 61.0 °F 41% 30.10 in 10.0 mi SW 17.3 mph 26.5 mph N/A   Clear
11:56 AM 88.0 °F 87.6 °F 60.1 °F 39% 30.07 in 10.0 mi SW 21.9 mph 28.8 mph N/A   Clear
12:56 PM 89.1 °F 88.8 °F 60.1 °F 38% 30.05 in 10.0 mi SW 16.1 mph 21.9 mph N/A   Mostly Cloudy
1:56 PM 88.0 °F 87.6 °F 60.1 °F 39% 30.03 in 10.0 mi SW 12.7 mph - N/A   Mostly Cloudy
2:56 PM 91.0 °F 90.5 °F 60.1 °F 35% 30.00 in 10.0 mi SW 16.1 mph 23.0 mph N/A   Partly Cloudy
3:56 PM 89.1 °F 88.8 °F 60.1 °F 38% 29.99 in 10.0 mi SW 17.3 mph 25.3 mph N/A   Mostly Cloudy
4:56 PM 88.0 °F 87.6 °F 60.1 °F 39% 29.98 in 10.0 mi SW 13.8 mph - N/A   Partly Cloudy
5:56 PM 87.1 °F 87.0 °F 61.0 °F 41% 29.97 in 10.0 mi SSW 11.5 mph - N/A   Partly Cloudy
6:56 PM 82.0 °F 82.4 °F 60.1 °F 47% 29.98 in 10.0 mi SSW 8.1 mph - N/A   Clear
7:56 PM 80.1 °F 81.1 °F 61.0 °F 52% 29.98 in 10.0 mi South 6.9 mph - N/A   Overcast
8:56 PM 78.1 °F - 61.0 °F 56% 29.99 in 10.0 mi SSW 6.9 mph - N/A   Mostly Cloudy
9:56 PM 75.9 °F - 62.1 °F 62% 29.99 in 10.0 mi SSW 6.9 mph - N/A   Clear
10:56 PM 79.0 °F - 63.0 °F 58% 30.00 in 10.0 mi SSW 10.4 mph - N/A   Mostly Cloudy
11:56 PM 78.1 °F - 63.0 °F 60% 30.01 in 10.0 mi SW 6.9 mph - N/A   Overcast